TimeCDT,TemperatureF,Dew PointF,Humidity,Sea Level PressureIn,VisibilityMPH,Wind Direction,Wind SpeedMPH,Gust SpeedMPH,PrecipitationIn,Events,Conditions,WindDirDegrees,DateUTC
12:15 AM,68.0,68.0,100,29.80,10.0,SE,5.8,-,N/A,,Clear,130,2013-10-04 05:15:00
12:35 AM,69.8,68.0,94,29.80,10.0,SSE,5.8,-,N/A,,Partly Cloudy,150,2013-10-04 05:35:00
12:55 AM,69.8,68.0,94,29.79,10.0,SSE,8.1,-,N/A,,Clear,160,2013-10-04 05:55:00
1:15 AM,71.6,68.0,88,29.78,10.0,SSE,10.4,-,N/A,,Partly Cloudy,160,2013-10-04 06:15:00
1:35 AM,71.6,68.0,88,29.79,10.0,South,11.5,-,N/A,,Partly Cloudy,170,2013-10-04 06:35:00
1:55 AM,71.6,68.0,88,29.80,10.0,South,11.5,20.7,N/A,,Scattered Clouds,180,2013-10-04 06:55:00
2:15 AM,71.6,68.0,88,29.81,10.0,South,10.4,18.4,N/A,,Scattered Clouds,170,2013-10-04 07:15:00
2:35 AM,71.6,66.2,83,29.84,10.0,NNW,17.3,24.2,N/A,,Mostly Cloudy,330,2013-10-04 07:35:00
2:55 AM,66.2,59.0,78,29.86,10.0,North,16.1,-,N/A,,Overcast,350,2013-10-04 07:55:00
3:15 AM,66.2,57.2,73,29.86,10.0,NNE,12.7,-,N/A,,Overcast,20,2013-10-04 08:15:00
3:35 AM,64.4,57.2,77,29.85,10.0,NE,12.7,-,N/A,,Overcast,40,2013-10-04 08:35:00
3:55 AM,64.4,59.0,83,29.85,10.0,NE,10.4,18.4,N/A,,Light Drizzle,40,2013-10-04 08:55:00
4:15 AM,62.6,59.0,88,29.84,10.0,ENE,10.4,-,N/A,,Overcast,70,2013-10-04 09:15:00
4:35 AM,62.6,60.8,94,29.83,10.0,East,8.1,-,N/A,,Overcast,80,2013-10-04 09:35:00
4:55 AM,62.6,60.8,94,29.83,10.0,East,9.2,-,N/A,,Overcast,100,2013-10-04 09:55:00
5:15 AM,64.4,60.8,88,29.82,10.0,East,10.4,-,N/A,,Overcast,90,2013-10-04 10:15:00
5:35 AM,64.4,60.8,88,29.82,10.0,East,12.7,-,N/A,,Overcast,80,2013-10-04 10:35:00
5:55 AM,64.4,60.8,88,29.85,10.0,North,13.8,-,N/A,,Overcast,350,2013-10-04 10:55:00
6:15 AM,62.6,60.8,94,29.81,10.0,ENE,11.5,-,N/A,,Overcast,70,2013-10-04 11:15:00
6:35 AM,64.4,60.8,88,29.83,10.0,NE,5.8,15.0,N/A,,Overcast,50,2013-10-04 11:35:00
6:55 AM,64.4,60.8,88,29.83,10.0,NE,6.9,-,N/A,,Light Drizzle,50,2013-10-04 11:55:00
7:35 AM,62.6,60.8,94,29.85,0.8,NNE,15.0,25.3,N/A,Rain,Rain,30,2013-10-04 12:35:00
7:55 AM,62.6,60.8,94,29.88,2.0,NE,8.1,-,0.01,Rain,Rain,40,2013-10-04 12:55:00
8:15 AM,62.6,60.8,94,29.87,10.0,NE,11.5,19.6,N/A,,Light Drizzle,40,2013-10-04 13:15:00
8:35 AM,62.6,62.6,100,29.88,9.0,East,11.5,-,N/A,,Overcast,90,2013-10-04 13:35:00
8:55 AM,62.6,62.6,100,29.87,10.0,ENE,12.7,-,N/A,,Overcast,60,2013-10-04 13:55:00
9:15 AM,62.6,62.6,100,29.87,10.0,ENE,12.7,18.4,N/A,,Overcast,60,2013-10-04 14:15:00
9:35 AM,62.6,62.6,100,29.86,10.0,ENE,12.7,-,N/A,,Overcast,70,2013-10-04 14:35:00
9:55 AM,62.6,62.6,100,29.86,9.0,East,9.2,18.4,N/A,,Mostly Cloudy,100,2013-10-04 14:55:00
10:15 AM,64.4,62.6,94,29.84,2.5,East,15.0,-,N/A,Rain,Light Rain,100,2013-10-04 15:15:00
10:35 AM,64.4,62.6,94,29.84,8.0,ESE,18.4,-,N/A,Rain,Light Rain,120,2013-10-04 15:35:00
10:55 AM,64.4,62.6,94,29.88,2.0,ESE,9.2,19.6,N/A,Rain,Light Rain,120,2013-10-04 15:55:00
11:15 AM,64.4,62.6,94,29.85,1.2,East,15.0,-,N/A,Rain,Rain,90,2013-10-04 16:15:00
11:35 AM,64.4,64.4,100,29.84,9.0,East,13.8,-,N/A,,Scattered Clouds,100,2013-10-04 16:35:00
11:55 AM,64.4,64.4,100,29.85,4.0,ESE,11.5,-,N/A,Rain,Light Rain,110,2013-10-04 16:55:00
12:15 PM,66.2,64.4,94,29.83,10.0,East,13.8,-,N/A,,Light Drizzle,90,2013-10-04 17:15:00
12:35 PM,68.0,66.2,94,29.84,10.0,ESE,16.1,-,N/A,,Mostly Cloudy,120,2013-10-04 17:35:00
12:55 PM,68.0,66.2,94,29.83,10.0,ESE,11.5,19.6,N/A,,Overcast,120,2013-10-04 17:55:00
1:15 PM,69.8,68.0,94,29.81,9.0,ESE,15.0,-,N/A,,Overcast,120,2013-10-04 18:15:00
1:35 PM,71.6,69.8,94,29.79,9.0,SE,13.8,24.2,N/A,,Overcast,130,2013-10-04 18:35:00
1:55 PM,75.2,69.8,83,29.77,10.0,SE,21.9,28.8,N/A,,Mostly Cloudy,140,2013-10-04 18:55:00
2:15 PM,75.2,69.8,83,29.77,10.0,SE,16.1,24.2,N/A,,Mostly Cloudy,140,2013-10-04 19:15:00
2:35 PM,77.0,69.8,78,29.76,10.0,SE,15.0,20.7,N/A,,Overcast,140,2013-10-04 19:35:00
2:55 PM,77.0,69.8,78,29.76,10.0,South,16.1,-,N/A,,Overcast,170,2013-10-04 19:55:00
3:15 PM,78.8,69.8,74,29.76,10.0,SSE,17.3,-,N/A,,Mostly Cloudy,150,2013-10-04 20:15:00
3:35 PM,78.8,69.8,74,29.75,10.0,SSE,16.1,23.0,N/A,,Mostly Cloudy,150,2013-10-04 20:35:00
3:55 PM,78.8,69.8,74,29.75,9.0,SE,17.3,27.6,N/A,,Light Drizzle,140,2013-10-04 20:55:00
4:15 PM,80.6,69.8,70,29.75,10.0,SSE,13.8,24.2,N/A,,Scattered Clouds,150,2013-10-04 21:15:00
4:35 PM,80.6,69.8,70,29.74,10.0,SE,16.1,25.3,N/A,,Clear,140,2013-10-04 21:35:00
4:55 PM,80.6,69.8,70,29.73,10.0,SE,13.8,24.2,N/A,,Clear,140,2013-10-04 21:55:00
5:15 PM,80.6,69.8,70,29.74,10.0,SSE,13.8,27.6,N/A,,Partly Cloudy,160,2013-10-04 22:15:00
5:35 PM,82.4,68.0,62,29.74,10.0,South,13.8,19.6,N/A,,Mostly Cloudy,170,2013-10-04 22:35:00
5:55 PM,82.4,68.0,62,29.74,10.0,South,13.8,19.6,N/A,,Mostly Cloudy,170,2013-10-04 22:55:00
6:15 PM,80.6,68.0,65,29.74,10.0,South,12.7,19.6,N/A,,Partly Cloudy,170,2013-10-04 23:15:00
6:35 PM,78.8,68.0,69,29.74,10.0,SSE,11.5,-,N/A,,Clear,160,2013-10-04 23:35:00
6:55 PM,78.8,68.0,69,29.74,10.0,SSE,11.5,18.4,N/A,,Clear,160,2013-10-04 23:55:00
7:15 PM,78.8,68.0,69,29.74,10.0,SSE,11.5,17.3,N/A,,Clear,160,2013-10-05 00:15:00
7:35 PM,78.8,66.2,65,29.75,10.0,SSE,13.8,-,N/A,,Clear,160,2013-10-05 00:35:00
7:55 PM,78.8,66.2,65,29.74,10.0,SSE,15.0,20.7,N/A,,Clear,160,2013-10-05 00:55:00
8:15 PM,77.0,66.2,69,29.75,10.0,South,16.1,-,N/A,,Clear,170,2013-10-05 01:15:00
8:35 PM,77.0,66.2,69,29.75,10.0,South,16.1,24.2,N/A,,Clear,170,2013-10-05 01:35:00
8:55 PM,77.0,66.2,69,29.76,10.0,South,13.8,19.6,N/A,,Clear,170,2013-10-05 01:55:00
9:15 PM,77.0,66.2,69,29.78,10.0,South,15.0,21.9,N/A,,Mostly Cloudy,190,2013-10-05 02:15:00
9:35 PM,77.0,66.2,69,29.79,10.0,SSW,15.0,-,N/A,,Mostly Cloudy,200,2013-10-05 02:35:00
9:55 PM,75.2,68.0,78,29.80,10.0,SSW,13.8,21.9,N/A,,Scattered Clouds,210,2013-10-05 02:55:00
10:15 PM,75.2,64.4,69,29.80,10.0,West,20.7,-,N/A,,Mostly Cloudy,260,2013-10-05 03:15:00
10:35 PM,71.6,60.8,69,29.82,10.0,West,15.0,20.7,N/A,,Mostly Cloudy,260,2013-10-05 03:35:00
10:55 PM,69.8,59.0,68,29.84,10.0,West,11.5,18.4,N/A,,Mostly Cloudy,260,2013-10-05 03:55:00
11:15 PM,69.8,55.4,60,29.84,10.0,West,12.7,18.4,N/A,,Overcast,260,2013-10-05 04:15:00
11:35 PM,68.0,55.4,64,29.84,10.0,West,9.2,19.6,N/A,,Mostly Cloudy,260,2013-10-05 04:35:00
11:55 PM,66.2,55.4,68,29.85,-9999.0,West,6.9,12.7,N/A,,Mostly Cloudy,260,2013-10-05 04:55:00